Date String (YYYY-MM-DD hh:mm:ss) UTC,Instrument flags,absolute air pressure of the measurement (hPa),sample flow rate (lpm),inlet stack bypass flow (lpm),air temperature of the measurement (°C),ambient temperature measured by the external sensor (°C),aerosol sample conditioner tube jacket temperature (°C),OPC LED temperature (°C),internal box temperature (°C),relative humidity of the measurement (%),span deviation,mass concentration of particles derived from Lorenz-Mie calculation of OPC scattering (μg/m³),mass concentration of particles derived from Lorenz-Mie calculation of OPC scattering (μg/m³),mass concentration of particles derived from Lorenz-Mie calculation of OPC scattering (μg/m³)
DateTimeUTC,F1_M11,P_M11,Q1_M11,Q2_M11,T1_M11,T2_M11,T3_M11,T4_M11,T5_M11,U1_M11,ZSPAN_M11,X0_M11,X2_M11,X1_M11
2023-09-16 15:00:00,SystemResetWarning,0837.7,5.00,000.00,026.8,025.4,000.0,035.1,028.5,25.7,0000.0,0010.43,0004.69,0004.11
2023-09-16 15:01:00,SystemResetWarning,0837.7,5.01,000.00,026.8,025.4,000.0,035.1,028.5,26.3,0000.0,0010.21,0004.71,0004.10
2023-09-16 15:02:00,SystemResetWarning,0837.8,5.01,000.00,026.8,025.4,000.0,035.1,028.5,26.1,0000.0,0010.45,0004.68,0004.10
2023-09-16 15:03:00,SystemResetWarning,0837.7,5.00,000.00,026.8,025.5,000.0,035.1,028.5,26.2,0000.0,0009.73,0004.65,0004.10
2023-09-16 15:04:00,SystemResetWarning,0837.8,4.99,000.00,026.8,025.5,000.0,035.1,028.6,26.6,0000.0,0009.70,0004.63,0004.11
2023-09-16 15:05:00,SystemResetWarning,0837.8,5.00,000.00,026.9,025.5,000.0,035.1,028.6,26.3,0000.0,0009.59,0004.65,0004.10
2023-09-16 15:06:00,SystemResetWarning,0837.8,4.99,000.00,026.9,025.5,000.0,035.1,028.6,26.1,0000.0,0009.57,0004.67,0004.09
2023-09-16 15:07:00,SystemResetWarning,0837.8,5.02,000.00,026.9,025.5,000.0,035.1,028.6,26.1,0000.0,0009.52,0004.65,0004.09
2023-09-16 15:08:00,SystemResetWarning,0837.8,5.00,000.00,026.9,025.6,000.0,035.1,028.6,26.7,0000.0,0009.84,0004.66,0004.10
2023-09-16 15:09:00,SystemResetWarning,0837.8,4.99,000.00,026.9,025.6,000.0,035.2,028.6,26.9,0000.0,0010.10,0004.64,0004.10
2023-09-16 15:10:00,SystemResetWarning,0837.8,4.99,000.00,026.9,025.6,000.0,035.2,028.6,27.2,0000.0,0009.97,0004.65,0004.10
2023-09-16 15:11:00,SystemResetWarning,0837.8,5.00,000.00,026.9,025.6,000.0,035.2,028.7,27.3,0000.0,0010.33,0004.69,0004.12
2023-09-16 15:12:00,SystemResetWarning,0837.8,5.00,000.00,027.0,025.6,000.0,035.2,028.7,26.6,0000.0,0010.44,0004.69,0004.13
2023-09-16 15:13:00,SystemResetWarning,0837.8,5.01,000.00,027.0,025.6,000.0,035.2,028.7,26.4,0000.0,0010.36,0004.68,0004.12
2023-09-16 15:14:00,SystemResetWarning,0837.8,5.00,000.00,027.0,025.7,000.0,035.2,028.7,26.5,0000.0,0010.12,0004.70,0004.12
2023-09-16 15:15:00,SystemResetWarning,0837.8,4.99,000.00,027.0,025.7,000.0,035.2,028.7,26.7,0000.0,0010.81,0004.70,0004.12
2023-09-16 15:16:00,SystemResetWarning,0837.8,4.99,000.00,027.0,025.7,000.0,035.2,028.8,26.6,0000.0,0010.72,0004.67,0004.12
2023-09-16 15:17:00,SystemResetWarning,0837.8,4.99,000.00,027.0,025.7,000.0,035.2,028.7,27.1,0000.0,0010.78,0004.63,0004.11
2023-09-16 15:18:00,SystemResetWarning,0837.8,5.00,000.00,027.0,025.7,000.0,035.3,028.8,27.2,0000.0,0011.12,0004.61,0004.11
2023-09-16 15:19:00,SystemResetWarning,0837.8,5.00,000.00,027.1,025.8,000.0,035.3,028.8,27.3,0000.0,0010.88,0004.61,0004.11
2023-09-16 15:20:00,SystemResetWarning,0837.8,5.01,000.00,027.1,025.8,000.0,035.3,028.8,26.8,0000.0,0010.56,0004.61,0004.10
2023-09-16 15:21:00,SystemResetWarning,0837.8,5.01,000.00,027.1,025.8,000.0,035.3,028.8,26.7,0000.0,0010.68,0004.58,0004.09
2023-09-16 15:22:00,SystemResetWarning,0837.9,5.00,000.00,027.1,025.8,000.0,035.3,028.8,26.5,0000.0,0010.67,0004.56,0004.08
2023-09-16 15:23:00,SystemResetWarning,0837.8,5.00,000.00,027.1,025.8,000.0,035.3,028.9,27.1,0000.0,0010.66,0004.55,0004.07
2023-09-16 15:24:00,SystemResetWarning,0837.9,5.00,000.00,027.1,025.8,000.0,035.3,028.9,26.9,0000.0,0010.92,0004.54,0004.07
2023-09-16 15:25:00,SystemResetWarning,0837.9,5.00,000.00,027.1,025.9,000.0,035.4,028.9,26.7,0000.0,0011.00,0004.54,0004.08
2023-09-16 15:26:00,SystemResetWarning,0838.0,5.00,000.00,027.2,025.9,000.0,035.4,028.9,27.3,0000.0,0010.29,0004.55,0004.08
2023-09-16 15:27:00,SystemResetWarning,0838.0,5.00,000.00,027.2,025.9,000.0,035.4,028.9,27.1,0000.0,0010.12,0004.54,0004.08
2023-09-16 15:28:00,SystemResetWarning,0838.0,5.01,000.00,027.2,025.9,000.0,035.4,028.9,26.4,0000.0,0010.05,0004.54,0004.06
2023-09-16 15:29:00,SystemResetWarning,0838.0,4.99,000.00,027.2,025.9,000.0,035.4,028.9,27.0,0000.0,0009.67,0004.55,0004.06
2023-09-16 15:30:00,SystemResetWarning,0838.0,5.00,000.00,027.2,025.9,000.0,035.4,028.9,26.8,0000.0,0010.02,0004.51,0004.04
2023-09-16 15:31:00,SystemResetWarning,0838.0,5.00,000.00,027.2,025.9,000.0,035.4,029.0,26.3,0000.0,0010.04,0004.53,0004.03
2023-09-16 15:32:00,SystemResetWarning,0837.9,5.00,000.00,027.2,026.0,000.0,035.4,029.0,26.1,0000.0,0009.57,0004.55,0004.03
2023-09-16 15:33:00,SystemResetWarning,0837.9,5.00,000.00,027.3,026.0,000.0,035.5,029.0,25.6,0000.0,0009.70,0004.53,0004.02
2023-09-16 15:34:00,SystemResetWarning,0838.0,5.00,000.00,027.3,026.0,000.0,035.5,029.0,25.3,0000.0,0009.46,0004.50,0004.00
2023-09-16 15:35:00,SystemResetWarning,0837.9,5.00,000.00,027.3,026.0,000.0,035.5,029.0,24.6,0000.0,0009.12,0004.48,0003.98
2023-09-16 15:36:00,SystemResetWarning,0838.0,5.00,000.00,027.3,026.0,000.0,035.5,029.0,24.7,0000.0,0009.44,0004.47,0003.97
2023-09-16 15:37:00,SystemResetWarning,0838.0,5.00,000.00,027.3,026.0,000.0,035.5,029.0,24.8,0000.0,0009.42,0004.45,0003.95
2023-09-16 15:38:00,SystemResetWarning,0837.9,5.01,000.00,027.3,026.0,000.0,035.5,029.0,25.0,0000.0,0009.46,0004.45,0003.93
2023-09-16 15:39:00,SystemResetWarning,0837.9,5.00,000.00,027.3,026.0,000.0,035.6,029.1,24.5,0000.0,0009.47,0004.43,0003.93
2023-09-16 15:40:00,SystemResetWarning,0838.0,5.00,000.00,027.3,026.1,000.0,035.6,029.1,24.4,0000.0,0009.45,0004.43,0003.93
2023-09-16 15:41:00,SystemResetWarning,0838.0,5.01,000.00,027.4,026.1,000.0,035.6,029.1,24.4,0000.0,0008.85,0004.42,0003.92
2023-09-16 15:42:00,SystemResetWarning,0838.1,5.00,000.00,027.4,026.1,000.0,035.6,029.1,24.7,0000.0,0008.80,0004.39,0003.92
2023-09-16 15:43:00,SystemResetWarning,0838.1,4.99,000.00,027.4,026.1,000.0,035.6,029.1,24.6,0000.0,0008.71,0004.36,0003.91
2023-09-16 15:44:00,SystemResetWarning,0838.1,5.00,000.00,027.4,026.1,000.0,035.6,029.1,24.7,0000.0,0008.46,0004.36,0003.91
2023-09-16 15:45:00,SystemResetWarning,0838.1,5.00,000.00,027.4,026.1,000.0,035.6,029.2,24.7,0000.0,0008.25,0004.37,0003.92
2023-09-16 15:46:00,SystemResetWarning,0838.1,4.99,000.00,027.4,026.2,000.0,035.7,029.2,24.7,0000.0,0008.44,0004.36,0003.92
2023-09-16 15:47:00,SystemResetWarning,0838.2,5.00,000.00,027.5,026.2,000.0,035.7,029.2,24.3,0000.0,0008.20,0004.38,0003.93
2023-09-16 15:48:00,SystemResetWarning,0838.2,5.00,000.00,027.5,026.2,000.0,035.7,029.2,25.1,0000.0,0008.26,0004.38,0003.92
2023-09-16 15:49:00,SystemResetWarning,0838.2,5.00,000.00,027.5,026.2,000.0,035.7,029.2,25.1,0000.0,0008.30,0004.37,0003.92
2023-09-16 15:50:00,SystemResetWarning,0838.2,5.01,000.00,027.5,026.2,000.0,035.7,029.2,24.7,0000.0,0008.35,0004.37,0003.92
2023-09-16 15:51:00,SystemResetWarning,0838.2,5.00,000.00,027.5,026.2,000.0,035.7,029.2,24.4,0000.0,0008.27,0004.34,0003.92
2023-09-16 15:52:00,SystemResetWarning,0838.2,4.99,000.00,027.5,026.2,000.0,035.7,029.2,23.8,0000.0,0008.22,0004.32,0003.93
2023-09-16 15:53:00,SystemResetWarning,0838.2,4.99,000.00,027.5,026.3,000.0,035.8,029.3,24.9,0000.0,0008.22,0004.32,0003.93
2023-09-16 15:54:00,SystemResetWarning,0838.2,5.00,000.00,027.5,026.3,000.0,035.8,029.3,24.2,0000.0,0008.26,0004.34,0003.93
2023-09-16 15:55:00,SystemResetWarning,0838.2,4.99,000.00,027.6,026.3,000.0,035.8,029.3,23.2,0000.0,0008.25,0004.34,0003.92
2023-09-16 15:56:00,SystemResetWarning,0838.2,5.00,000.00,027.6,026.3,000.0,035.8,029.3,23.3,0000.0,0008.16,0004.31,0003.91
2023-09-16 15:57:00,SystemResetWarning,0838.2,5.00,000.00,027.6,026.3,000.0,035.8,029.3,22.6,0000.0,0007.65,0004.31,0003.90
2023-09-16 15:58:00,SystemResetWarning,0838.1,5.00,000.00,027.6,026.4,000.0,035.8,029.3,22.3,0000.0,0007.19,0004.30,0003.90
2023-09-16 15:59:00,SystemResetWarning,0838.2,5.01,000.00,027.6,026.4,000.0,035.8,029.3,22.3,0000.0,0007.06,0004.28,0003.90
